Location: Glion
(46.4330°N, 6.9246°E)
Time: 17:43:02
(UTC+00:00)

Cosmos 1354 Rocket - Pass Details

Date: 03 March 2021
Orbit: 765 x 782 km, 74.0° (Epoch: 22 April)

Event Time Altitude Azimuth Distance (km) Brightness Sun altitude
Rises 18:18:55 0° 340° (NNW) 3,251 7.6 -10.7°
Reaches altitude 10° 18:21:21 10° 344° (NNW) 2,318 6.7 -11.1°
Maximum altitude 18:26:33 60° 65° (ENE) 880 4.0 -12.0°
Drops below altitude 10° 18:31:42 10° 145° (SE) 2,297 6.1 -12.9°
Enters shadow 18:33:35 - 148° (SSE) 3,020 6.7 -13.2°
